This demonstration page uses our WeatherBlox Daily Observations layout. Learn more.

Left ArrowRight Arrow

Hourly Observations for May 7, 2018

Temp ( °F °C ) Dew Point ( °F °C ) Humidity (%) Winds ( mph kmh ) Pressure ( in mb ) Visibility ( mi km ) Precip ( " mm )
12:53 am 00:53 Clear 59 15 58 14.4 96 96 Calm 30.02 1017 9 14 0.00 0.00
1:51 am 01:51 Clear with Mist and Fog 55 13 55 13 100 100 Calm 30.06 1018 2 2 0.00 0.00
1:53 am 01:53 Clear with Mist and Fog 56 13.3 55 12.8 97 97 Calm 30.01 1016 1 2 0.00 0.00
2:16 am 02:16 Mostly Cloudy with Fog 56 13.3 55 12.8 97 97 Calm 30.06 1018 1 1 0.00 0.00
2:32 am 02:32 Clear with Fog 55 12.8 54 12.2 96 96 Calm 30.06 1018 1 1 0.00 0.00
2:41 am 02:41 Mostly Cloudy with Fog 54 12.2 53 11.7 97 97 Calm 30.06 1018 1 1 0.00 0.00
2:50 am 02:50 Clear with Mist and Fog 55 13 54 12 94 94 Calm 30.06 1018 2 3 0.00 0.00
2:53 am 02:53 Clear with Mist and Fog 55 12.8 54 12.2 96 96 Calm 30.01 1016 2 3 0.00 0.00
3:01 am 03:01 Mostly Cloudy with Mist and Fog 54 12.2 53 11.7 97 97 Calm 30.06 1018 1 1 0.00 0.00
3:14 am 03:14 Clear with Mist and Fog 54 12.2 54 12.2 100 100 Calm 30.06 1018 1 2 0.00 0.00
3:31 am 03:31 Clear with Mist and Fog 54 12.2 54 12.2 100 100 NNE 5 7 30.06 1018 1 1 0.00 0.00
3:36 am 03:36 Mostly Clear with Mist and Fog 56 13.3 56 13.3 100 100 NE 5 7 30.06 1018 2 3 0.00 0.00
3:41 am 03:41 Mostly Cloudy with Mist and Fog 57 13.9 56 13.3 96 96 NE 6 9 30.03 1017 5 8 0.00 0.00
3:53 am 03:53 Mostly Cloudy 57 13.9 56 13.3 96 96 NE 5 7 30.03 1017 7 11 0.00 0.00
4:32 am 04:32 Cloudy with Mist and Fog 58 14.4 56 13.3 93 93 N 6 9 30.06 1018 6 10 0.00 0.00
4:41 am 04:41 Cloudy with Mist and Fog 57 13.9 55 12.8 93 93 N 8 13 30.06 1018 5 8 0.00 0.00
4:53 am 04:53 Cloudy with Mist and Fog 57 13.9 55 12.8 93 93 NNE 6 9 30.05 1018 5 8 0.00 0.00
5:23 am 05:23 Partly Cloudy 55 12.8 52 11.1 90 90 N 5 7 30.09 1019 7 11 0.00 0.00
5:53 am 05:53 Clear 53 11.7 50 10 89 89 N 6 9 30.08 1019 9 14 0.00 0.00
6:53 am 06:53 Mostly Sunny 52 11.1 48 8.9 86 86 NNE 3 6 30.10 1019 10 16 0.00 0.00
7:53 am 07:53 Sunny 55 12.8 49 9.4 80 80 N 6 9 30.13 1020 10 16 0.00 0.00
8:53 am 08:53 Sunny 57 13.9 49 9.4 74 74 NNE 8 13 30.14 1021 10 16 0.00 0.00
9:53 am 09:53 Sunny 60 15.6 50 10 70 70 NNE 9 15 30.16 1021 10 16 0.00 0.00
10:53 am 10:53 Sunny 64 17.8 51 10.6 63 63 N 9 15 30.16 1021 10 16 0.00 0.00
11:53 am 11:53 Sunny 67 19.4 51 10.6 57 57 NE 12 19 30.16 1021 10 16 0.00 0.00
12:53 pm 12:53 Sunny 69 20.6 51 10.6 53 53 NNE 9 15 30.16 1021 10 16 0.00 0.00
1:53 pm 13:53 Sunny 71 21.7 50 10 47 47 NNE 9 15 30.15 1021 10 16 0.00 0.00
2:53 pm 14:53 Mostly Sunny 72 22.2 50 10 46 46 N 13 20 30.14 1021 10 16 0.00 0.00
3:53 pm 15:53 Partly Cloudy 71 21.7 48 8.9 44 44 N 8 13 30.13 1020 10 16 0.00 0.00
4:53 pm 16:53 Mostly Cloudy 72 22.2 47 8.3 41 41 NE 9 15 30.13 1020 10 16 0.00 0.00
5:53 pm 17:53 Mostly Sunny 71 21.7 45 7.2 39 39 NNW 7 11 30.13 1020 10 16 0.00 0.00
6:53 pm 18:53 Mostly Sunny 71 21.7 44 6.7 38 38 NE 8 13 30.12 1020 10 16 0.00 0.00
7:53 pm 19:53 Sunny 69 20.6 42 5.6 38 38 N 6 9 30.12 1020 10 16 0.00 0.00
8:53 pm 20:53 Clear 60 15.6 45 7.2 58 58 N 5 7 30.14 1021 10 16 0.00 0.00
9:53 pm 21:53 Clear 53 11.7 45 7.2 74 74 N 5 7 30.15 1021 10 16 0.00 0.00
10:53 pm 22:53 Clear 55 12.8 44 6.7 67 67 Calm 30.16 1021 10 16 0.00 0.00
11:53 pm 23:53 Clear 51 10.6 44 6.7 77 77 Calm 30.17 1022 10 16 0.00 0.00

Powered by AerisWeather